Hourly Weather Santiago del Estero

Today, 30 September, Wednesday

Time Temperature Precipitation Wind Pressure Humidity
00:00 +23°C° 0 mm 2 mps 734 mmHg 49%
01:00 +21°C° 0 mm 2 mps 734 mmHg 52%
02:00 +21°C° 0 mm 1 mps 734 mmHg 55%
03:00 +20°C° 0 mm 2 mps 734 mmHg 55%
04:00 +20°C° 0 mm 2 mps 734 mmHg 56%
05:00 +20°C° 0 mm 2 mps 734 mmHg 57%
06:00 +21°C° 0 mm 2 mps 734 mmHg 53%
07:00 +24°C° 0 mm 2 mps 735 mmHg 49%
08:00 +26°C° 0 mm 2 mps 736 mmHg 46%
09:00 +29°C° 0 mm 2 mps 735 mmHg 40%
10:00 +32°C° 0 mm 1 mps 735 mmHg 34%
11:00 +35°C° 0 mm 1 mps 735 mmHg 29%
12:00 +37°C° 0 mm 1 mps 734 mmHg 26%
13:00 +39°C° 0 mm 1 mps 733 mmHg 24%
14:00 +41°C° 0 mm 1 mps 732 mmHg 22%
15:00 +41°C° 0 mm 2 mps 732 mmHg 22%
16:00 +41°C° 0 mm 2 mps 731 mmHg 22%
17:00 +42°C° 0 mm 3 mps 731 mmHg 21%
18:00 +37°C° 0 mm 2 mps 732 mmHg 29%
19:00 +33°C° 0 mm 1 mps 732 mmHg 38%
20:00 +30°C° 0 mm 1 mps 732 mmHg 46%
21:00 +30°C° 0 mm 1 mps 732 mmHg 43%
22:00 +30°C° 0 mm 2 mps 732 mmHg 40%
23:00 +30°C° 0 mm 2 mps 732 mmHg 37%

Tomorrow, 1 October, Thursday

Time Temperature Precipitation Wind Pressure Humidity
00:00 +29°C° 0 mm 3 mps 732 mmHg 39%
01:00 +28°C° 0 mm 5 mps 733 mmHg 40%
02:00 +28°C° 0 mm 6 mps 733 mmHg 42%
03:00 +26°C° 0 mm 6 mps 733 mmHg 45%
04:00 +23°C° 0 mm 6 mps 734 mmHg 47%
05:00 +21°C° 0 mm 7 mps 735 mmHg 50%
06:00 +22°C° 0 mm 7 mps 736 mmHg 48%
07:00 +23°C° 0 mm 7 mps 737 mmHg 46%
08:00 +24°C° 0 mm 7 mps 738 mmHg 44%
09:00 +27°C° 0 mm 7 mps 738 mmHg 41%
10:00 +28°C° 0 mm 7 mps 738 mmHg 38%
11:00 +30°C° 0 mm 7 mps 738 mmHg 35%
12:00 +32°C° 0 mm 7 mps 738 mmHg 33%
13:00 +33°C° 0 mm 8 mps 737 mmHg 31%
14:00 +33°C° 0 mm 8 mps 736 mmHg 29%
15:00 +32°C° 0 mm 8 mps 736 mmHg 30%
16:00 +30°C° 0 mm 7 mps 736 mmHg 32%
17:00 +28°C° 0 mm 7 mps 736 mmHg 34%
18:00 +26°C° 0 mm 7 mps 736 mmHg 37%
19:00 +23°C° 0 mm 6 mps 737 mmHg 40%
20:00 +20°C° 0 mm 6 mps 738 mmHg 43%
21:00 +19°C° 0 mm 5 mps 739 mmHg 43%
22:00 +18°C° 0 mm 4 mps 739 mmHg 42%
23:00 +17°C° 0 mm 3 mps 740 mmHg 42%

Day after tomorrow, 2 October, Friday

Time Temperature Precipitation Wind Pressure Humidity
00:00 +17°C° 0 mm 4 mps 740 mmHg 40%
01:00 +18°C° 0 mm 4 mps 741 mmHg 38%
02:00 +17°C° 0 mm 5 mps 741 mmHg 36%
03:00 +17°C° 0 mm 5 mps 741 mmHg 37%
04:00 +18°C° 0 mm 4 mps 741 mmHg 37%
05:00 +18°C° 0 mm 4 mps 742 mmHg 38%
06:00 +17°C° 0 mm 4 mps 742 mmHg 36%
07:00 +17°C° 0 mm 4 mps 743 mmHg 35%
08:00 +17°C° 0 mm 4 mps 743 mmHg 34%
09:00 +18°C° 0 mm 4 mps 744 mmHg 34%
10:00 +18°C° 0 mm 4 mps 744 mmHg 34%
11:00 +19°C° 0 mm 3 mps 744 mmHg 34%
12:00 +19°C° 0 mm 3 mps 743 mmHg 35%
13:00 +20°C° 0 mm 4 mps 743 mmHg 36%
14:00 +21°C° 0 mm 4 mps 743 mmHg 37%
15:00 +20°C° 0 mm 4 mps 742 mmHg 40%
16:00 +20°C° 0 mm 5 mps 742 mmHg 43%
17:00 +19°C° 0 mm 6 mps 742 mmHg 46%
18:00 +17°C° 0 mm 5 mps 743 mmHg 52%
19:00 +16°C° 0 mm 5 mps 745 mmHg 58%
20:00 +15°C° 0 mm 5 mps 746 mmHg 64%
21:00 +15°C° 0.2 mm 4 mps 747 mmHg 71%
22:00 +14°C° 0.2 mm 5 mps 747 mmHg 74%
23:00 +14°C° 0.2 mm 5 mps 747 mmHg 77%

3 October, Saturday

Time Temperature Precipitation Wind Pressure Humidity
00:00 +14°C° 0.1 mm 5 mps 747 mmHg 75%
01:00 +13°C° 0.1 mm 5 mps 747 mmHg 72%
02:00 +13°C° 0.1 mm 5 mps 747 mmHg 70%
03:00 +13°C° 0 mm 5 mps 748 mmHg 71%
04:00 +12°C° 0 mm 5 mps 748 mmHg 72%
05:00 +12°C° 0 mm 5 mps 748 mmHg 74%
06:00 +10°C° 0 mm 5 mps 749 mmHg 75%
07:00 +11°C° 0 mm 4 mps 749 mmHg 77%
08:00 +11°C° 0 mm 4 mps 749 mmHg 78%
09:00 +11°C° 0.1 mm 4 mps 750 mmHg 76%
10:00 +10°C° 0.1 mm 5 mps 750 mmHg 74%
11:00 +10°C° 0.1 mm 5 mps 750 mmHg 71%
12:00 +12°C° 0 mm 5 mps 749 mmHg 67%
13:00 +12°C° 0 mm 5 mps 748 mmHg 63%
14:00 +13°C° 0 mm 5 mps 748 mmHg 58%
15:00 +13°C° 0 mm 5 mps 747 mmHg 57%
16:00 +13°C° 0 mm 5 mps 747 mmHg 56%
17:00 +13°C° 0 mm 5 mps 746 mmHg 55%
18:00 +12°C° 0 mm 4 mps 747 mmHg 56%
19:00 +11°C° 0 mm 4 mps 747 mmHg 58%
20:00 +10°C° 0 mm 3 mps 747 mmHg 59%
21:00 +10°C° 0 mm 3 mps 748 mmHg 60%
22:00 +10°C° 0 mm 3 mps 748 mmHg 61%
23:00 +10°C° 0 mm 3 mps 748 mmHg 61%

4 October, Sunday

Time Temperature Precipitation Wind Pressure Humidity
00:00 +9°C° 0.1 mm 3 mps 748 mmHg 67%
01:00 +9°C° 0.1 mm 3 mps 748 mmHg 72%
02:00 +8°C° 0.1 mm 3 mps 747 mmHg 78%
03:00 +8°C° 0.1 mm 3 mps 747 mmHg 80%
04:00 +8°C° 0.1 mm 3 mps 747 mmHg 81%
05:00 +8°C° 0.1 mm 3 mps 746 mmHg 83%
06:00 +8°C° 0 mm 2 mps 746 mmHg 83%
07:00 +9°C° 0 mm 2 mps 746 mmHg 83%
08:00 +9°C° 0 mm 2 mps 746 mmHg 83%
09:00 +10°C° 0 mm 2 mps 746 mmHg 81%
10:00 +10°C° 0 mm 2 mps 745 mmHg 80%
11:00 +12°C° 0 mm 2 mps 745 mmHg 78%
12:00 +13°C° 0 mm 2 mps 744 mmHg 74%
13:00 +15°C° 0 mm 2 mps 743 mmHg 70%
14:00 +16°C° 0 mm 3 mps 743 mmHg 66%
15:00 +16°C° 0 mm 3 mps 743 mmHg 67%
16:00 +16°C° 0 mm 3 mps 742 mmHg 68%
17:00 +16°C° 0 mm 3 mps 742 mmHg 68%
18:00 +16°C° 0 mm 3 mps 743 mmHg 70%
19:00 +16°C° 0 mm 2 mps 744 mmHg 72%
20:00 +15°C° 0 mm 2 mps 745 mmHg 74%
21:00 +15°C° 0 mm 2 mps 745 mmHg 75%
22:00 +15°C° 0 mm 2 mps 746 mmHg 76%
23:00 +14°C° 0 mm 3 mps 747 mmHg 76%

5 October, Monday

Time Temperature Precipitation Wind Pressure Humidity
00:00 +13°C° 0 mm 3 mps 747 mmHg 78%
01:00 +14°C° 0 mm 2 mps 747 mmHg 79%
02:00 +14°C° 0 mm 2 mps 747 mmHg 80%
03:00 +14°C° 0 mm 2 mps 747 mmHg 80%
04:00 +13°C° 0 mm 2 mps 747 mmHg 80%
05:00 +13°C° 0 mm 2 mps 747 mmHg 80%
06:00 +14°C° 0 mm 2 mps 748 mmHg 76%
07:00 +15°C° 0 mm 1 mps 748 mmHg 72%
08:00 +16°C° 0 mm 1 mps 749 mmHg 68%
09:00 +18°C° 0 mm 2 mps 748 mmHg 61%
10:00 +20°C° 0 mm 2 mps 748 mmHg 53%
11:00 +21°C° 0 mm 3 mps 748 mmHg 46%
12:00 +24°C° 0 mm 2 mps 747 mmHg 41%
13:00 +25°C° 0 mm 2 mps 746 mmHg 36%
14:00 +26°C° 0 mm 2 mps 745 mmHg 31%
15:00 +26°C° 0 mm 3 mps 744 mmHg 31%
16:00 +26°C° 0 mm 3 mps 743 mmHg 31%
17:00 +26°C° 0 mm 3 mps 743 mmHg 31%
18:00 +22°C° 0 mm 3 mps 743 mmHg 33%
19:00 +20°C° 0 mm 3 mps 743 mmHg 34%
20:00 +18°C° 0 mm 3 mps 743 mmHg 36%
21:00 +17°C° 0 mm 3 mps 743 mmHg 35%
22:00 +16°C° 0 mm 3 mps 743 mmHg 34%
23:00 +14°C° 0 mm 3 mps 744 mmHg 33%
Show more

We Need Your Consent

Meteoprog and our Service Providers may store and access personal data such as cookies, device identifiers or other similar technologies on your device and process such data to personalise content and ads, as well as provide social media features and to analyse the traffic.

  • Store and/or access information on your device

    Cookies, device identifiers or other information can be stored or accessed on your device for the purposes indicated above.

  • Personalised ads and content, ad and content measurement, audience insights, and products development

    Ads and content can be personalised based on a profile. More data can be added to better personalise ads and content. Ad and content performance can be measured. Insights about the audience who saw the ads and content can be derived. Such data can be used to develop or improve user’s experience, systems and software.

By clicking ‘I Agree’ you will allow the use of indicated cookies, device identifiers, web beacons or other similar technologies. Your settings can be changed in the browser on your device.

For certain purposes, legitimate interests may be relied on, rather than consent. You can read more about this in our Privacy and Cookie Policy.